Miscellaneous Local Product
Issued by NWS North Platte, NE

Home | Current Version | Previous Version | Graphics & Text | Print | Product List | Glossary On
Versions: 1 2 3 4 5 6 7 8 9 10 11 12 13 14 15 16 17 18 19 20 21 22 23 24 25 26 27 28 29 30 31 32 33 34 35 36 37 38 39 40 41 42 43 44 45 46 47 48 49 50
000
AXUS43 KLBF 020410
MISLBF


WESTERN AND NORTH CENTRAL NEBRASKA HOURLY WEATHER ROUNDUP
NATIONAL WEATHER SERVICE NORTH PLATTE NE
1100 PM CDT SUN MAY 01 2016

NOTE: "FAIR" INDICATES FEW OR NO CLOUDS BELOW 12,000 FEET WITH NO
SIGNIFICANT WEATHER AND/OR OBSTRUCTIONS TO VISIBILITY.

NOTE: STATIONS NOT REPORTING VARIABLES SUCH AS SKY/WEATHER OR
PRESSURE ARE PROVIDED BY RAWS AND APRS NETWORKS AND ARE NOT UNDER
NATIONAL WEATHER SERVICE QUALITY CONTROL.

...OBSERVATIONS IN AND NEAR THE EASTERN PANHANDLE OF NEBRASKA...

CITY           SKY/WX    TMP DP  RH WIND       PRES   REMARKS
PINE RIDGE     CLEAR     36  31  82 CALM      30.24S
CHADRON        CLEAR     37  32  82 W3        30.25R
ALLIANCE       PTCLDY    33  30  88 CALM      30.25R
SIDNEY         MOCLDY    31  27  85 W6        30.27S WCI  25
CRESCENT LAKE    N/A     38  31  76 SW3         N/A
BIG SPRINGS      N/A     38  35  88 W3          N/A
$$

...OBSERVATIONS IN NORTHERN NEBRASKA AND FAR SOUTHERN SOUTH DAKOTA...

CITY           SKY/WX    TMP DP  RH WIND       PRES   REMARKS
WINNER         FAIR      43  35  73 SW5       30.22R
VALENTINE      CLEAR     41  32  70 CALM      30.24R
THEDFORD       CLEAR     41  33  72 CALM      30.25S
AINSWORTH      CLEAR     41  34  76 W3        30.24R
O`NEILL        CLEAR     43  35  74 W5        30.22R
ORD            CLEAR     38  35  89 NW7       30.20S WCI  33
BROKEN BOW     CLEAR     37  34  89 N6        30.22R WCI  32
VALENTINE NWR    N/A     40  34  79 CALM        N/A
BUTTE            N/A     46  36  68 W3          N/A
HALSEY           N/A     42  30  63 CALM        N/A
CHAMBERS         N/A     39  34  81 CALM        N/A
EWING            N/A     43  38  82 CALM        N/A
$$

...OBSERVATIONS IN SOUTHWEST NEBRASKA AND FAR NORTHEAST COLORADO...

CITY           SKY/WX    TMP DP  RH WIND       PRES   REMARKS
HOLYOKE        FAIR      37  32  81 NW6       30.27S WCI  33
IMPERIAL       CLEAR     41  31  67 NW6       30.25S
OGALLALA       PTCLDY    35  31  88 CALM      30.27R
NORTH PLATTE   CLEAR     37  33  85 NW9       30.24R WCI  30
MCCOOK         PTCLDY    41  36  82 SW6       30.22R
LEXINGTON      CLEAR     41  38  89 W5        30.22R
PAXTON           N/A     44  35  70 CALM        N/A
STAPLETON        N/A     38  34  86 CALM        N/A
GOTHENBURG       N/A     47  34  60 N3          N/A
CALLAWAY         N/A     43  34  70 N5          N/A
$$

...OBSERVATIONS IN CENTRAL LINCOLN COUNTY AREA...

CITY           SKY/WX    TMP DP  RH WIND       PRES   REMARKS
N.P. AIRPORT   CLEAR     37  33  85 NW9       30.24R WCI  30
N.P. DOWNTOWN    N/A     42  35  77 CALM        N/A
N.P. HILLCREST   N/A     42  36  78 N9          N/A
$$

...SOME OBSERVATIONS FROM AROUND THE REGION...

CITY           SKY/WX    TMP DP  RH WIND       PRES   REMARKS
DENVER         CLOUDY    35  28  75 SW6       30.29R WCI  30
LARAMIE        CLOUDY    25  18  74 SE6       30.27R WCI  18
CHEYENNE       CLEAR     31  23  72 W7        30.28R WCI  24
SCOTTSBLUFF    CLEAR     41  32  70 CALM      30.27R
RAPID CITY     CLEAR     38  29  70 W3        30.24R
BISMARCK       CLEAR     44  33  65 CALM      30.15F
PIERRE         CLEAR     42  34  73 CALM      30.19R
SIOUX FALLS    CLEAR     42  36  79 CALM      30.17R
OMAHA          MOCLDY    48  46  93 N6        30.14F
GRAND ISLAND   CLOUDY    47  41  80 NW6       30.20R
KANSAS CITY    CLOUDY    49  44  83 N7        30.13R
WICHITA        LGT RAIN  50  42  74 N12       30.19R
OKLAHOMA CITY  CLOUDY    53  45  74 N14       30.16R
DALLAS         PTCLDY    66  50  56 N13       30.06R
AMARILLO       CLOUDY    42  37  82 N14       30.26R
DODGE CITY     LGT RAIN  43  39  86 CALM      30.24R
HAYS           CLOUDY    45  34  65 NW3       30.23R
GOODLAND       CLEAR     35  31  85 NW9       30.25R WCI  28
$$




USA.gov is the U.S. government's official web portal to all federal, state and local government web resources and services.